This is the latest recevied weather packets stored in our database for station/object OE5ERN-10. If no packets are shown the sender has not sent any weather packets the latest 10 day(s).
| Time | Temp. | Humidity | Pressure | Rain* | Wind** | Luminosity | Snow |
|---|---|---|---|---|---|---|---|
| 1777158652 | 5.56° C | 73% | 1020.1 hPa | 0 mm | - | - | - |
| 1777157752 | 5.56° C | 72% | 1019.9 hPa | 0 mm | - | - | - |
| 1777156852 | 6.11° C | 71% | 1020.2 hPa | 0 mm | - | - | - |
| 1777155952 | 6.11° C | 70% | 1019.9 hPa | 0 mm | - | - | - |
| 1777155052 | 6.67° C | 68% | 1019.7 hPa | 0 mm | - | - | - |
| 1777154152 | 6.67° C | 67% | 1019.7 hPa | 0 mm | - | - | - |
| 1777153252 | 7.22° C | 67% | 1019.6 hPa | 0 mm | - | - | - |
| 1777152352 | 8.33° C | 65% | 1019.7 hPa | 0 mm | - | - | - |
| 1777151452 | 8.33° C | 63% | 1019.5 hPa | 0 mm | - | - | - |
| 1777150552 | 8.89° C | 62% | 1019.5 hPa | 0 mm | - | - | - |
| 1777149652 | 9.44° C | 60% | 1019.5 hPa | 0 mm | - | - | - |
| 1777148752 | 10° C | 59% | 1019.3 hPa | 0 mm | - | - | - |
| 1777147852 | 10.56° C | 57% | 1019.2 hPa | 0 mm | - | - | - |
| 1777146952 | 10.56° C | 56% | 1019.1 hPa | 0 mm | - | - | - |
| 1777146052 | 11.67° C | 53% | 1019 hPa | 0 mm | - | - | - |
| 1777145153 | 11.67° C | 51% | 1018.9 hPa | 0 mm | - | - | - |
| 1777144253 | 12.78° C | 50% | 1018.7 hPa | 0 mm | - | - | - |
| 1777143353 | 12.78° C | 48% | 1018.6 hPa | 0 mm | - | - | - |
| 1777142453 | 13.89° C | 46% | 1018.4 hPa | 0 mm | - | - | - |
| 1777141553 | 15° C | 43% | 1018.2 hPa | 0 mm | - | - | - |
| 1777140653 | 16.11° C | 40% | 1018.1 hPa | 0 mm | - | - | - |
| 1777139753 | 17.78° C | 37% | 1017.9 hPa | 0 mm | - | - | - |
| 1777138853 | 21.11° C | 31% | 1017.8 hPa | 0 mm | - | - | - |
| 1777137953 | 21.67° C | 31% | 1017.6 hPa | 0 mm | - | - | - |
| 1777137053 | 22.22° C | 30% | 1017.5 hPa | 0 mm | - | - | - |
* Rain latest hour (hover to see other rain measurements)
** Current wind speed in m/s (hover to see current wind gust speed)